Location: ČR
(50.0000°N, 15.0000°E)
Time: 21:36:35
(UTC+00:00)

Vanguard 3 - Pass Details

Date: 21 October 2021
Orbit: 508 x 3260 km, 33.4° (Epoch: 04 December)

Event Time Altitude Azimuth Distance (km) Brightness Sun altitude
Rises 19:26:10 0° 252° (WSW) 4,377 11.5 -33.7°
Reaches altitude 10° 19:28:59 10° 243° (WSW) 3,731 10.9 -34.1°
Maximum altitude 19:37:55 34° 183° (S) 3,146 9.8 -35.4°
Enters shadow 19:38:05 34° 182° (S) 3,160 9.8 -35.4°
Drops below altitude 10° 19:51:35 10° 128° (SE) 5,732 - -37.3°
Sets 19:57:15 0° 121° (ESE) 7,019 - -38.0°
